GFSNIL_con_mucape_000.txt.gz
CAPE
0 0 0 0 0 0 0 0 0 5 1 8 0 2 1 0 23 30 26 21 14 3
0 1 9 0 0 0 0 0 0 0 0 2 3 9 4 14 28 29 14 14 23 4
4 11 1 0 3 10 0 0 0 8 2 6 4 10 7 3 5 11 11 16 14 4
0 0 0 4 0 0 0 0 0 0 0 3 12 16 10 0 0 0 0 7 15 8
0 2 0 0 0 0 0 2 6 26 24 31 33 43 38 31 42 25 23 26 22 29
3 0 0 0 5 3 3 21 10 0 0 0 0 2 7 9 15 0 0 0 0 9
8 0 0 1 0 0 0 0 0 2 8 12 8 3 0 0 0 0 0 0 0 0
2 0 0 0 0 0 0 2 1 0 7 12 7 0 0 0 0 0 0 0 0 0
25 10 2 0 0 0 1 0 0 13 13 9 3 0 0 0 0 0 0 0 0 0
22 14 9 1 0 0 0 0 11 23 17 1 0 0 0 0 0 0 0 0 0 0
29 1 2 1 1 0 0 0 14 26 2 0 0 0 1 0 0 0 0 0 0 0
19 17 21 0 3 0 0 3 25 1 0 0 0 0 0 0 0 0 0 0 0 0
2 18 2 0 1 0 4 11 0 0 0 0 0 0 0 0 0 0 0 0 0 0
3 0 0 2 0 0 0 6 0 0 0 0 0 0 0 0 0 0 0 0 0 0

GFSNIL_con_mucape_003.txt.gz
CAPE
0 1 10 0 0 0 0 0 0 0 0 0 0 1 5 8 9 28 26 23 6 10
26 29 20 6 0 0 0 0 1 12 0 4 10 1 0 0 0 0 0 1 15 15
55 43 39 0 0 0 0 12 28 0 0 0 0 0 0 0 0 0 0 0 5 17
24 8 0 0 0 0 0 1 0 0 0 0 7 22 37 33 12 13 21 28 29 16
0 6 2 0 2 0 0 0 0 0 0 0 0 0 0 5 14 1 3 3 1 1
43 23 2 21 12 2 0 0 0 0 0 0 0 0 0 0 0 0 0 0 0 0
40 29 15 3 7 2 0 0 0 0 0 0 0 0 0 0 0 1 1 0 0 0
49 20 18 35 14 0 0 0 0 0 0 0 0 0 0 1 6 4 0 0 0 0
25 42 24 20 1 0 0 0 0 0 0 0 0 0 0 1 0 0 0 0 0 0
3 4 3 3 3 13 10 0 0 0 0 0 2 6 3 0 0 0 0 0 0 0
0 0 10 3 7 13 2 0 0 0 0 0 3 0 0 0 0 0 0 0 0 0
0 0 0 5 6 9 0 0 0 0 0 0 0 0 0 0 0 0 0 0 0 0
0 3 4 0 4 9 0 0 0 0 0 0 0 0 0 0 0 0 0 0 0 0
0 5 6 6 0 0 0 0 0 0 1 2 0 0 0 0 0 0 0 0 0 0

GFSNIL_con_mucape_006.txt.gz
CAPE
11 26 15 18 29 0 8 0 0 0 3 4 0 0 0 0 0 0 0 0 0 0
11 18 21 6 0 0 0 0 1 6 18 0 0 0 0 0 0 0 0 0 0 1
0 0 0 0 0 0 1 5 21 14 0 0 0 0 0 0 0 0 0 7 8 2
0 7 7 0 2 11 6 0 33 17 7 0 0 0 0 0 0 10 0 0 0 0
13 35 16 13 16 20 28 24 8 0 0 0 0 0 0 0 0 0 0 0 0 0
0 11 34 38 26 25 15 9 1 0 0 0 0 0 0 0 0 0 0 1 1 0
0 0 5 33 17 14 9 3 5 0 0 0 0 0 0 0 0 0 0 2 2 0
0 0 3 31 32 18 0 1 0 0 0 0 0 0 1 0 0 2 0 0 0 0
0 0 2 0 0 0 1 4 0 7 1 0 0 0 0 0 0 0 0 0 0 0
0 0 0 1 2 17 3 2 9 1 0 0 0 0 0 0 0 0 0 0 0 0
0 0 0 5 7 3 2 1 0 0 0 0 0 0 0 0 0 0 0 0 0 0
0 0 0 3 7 4 5 2 0 0 0 0 0 0 0 0 0 0 0 0 0 0
0 0 0 2 6 1 0 0 0 0 0 0 0 0 0 0 0 0 0 0 0 0
0 0 0 0 0 0 0 0 0 0 0 0 0 0 0 0 0 0 0 0 0 0

GFSNIL_con_mucape_009.txt.gz
CAPE
0 0 1 10 5 0 0 0 0 0 3 2 0 7 0 0 0 0 0 0 0 0
0 0 0 0 0 0 0 0 6 12 9 22 0 0 0 0 0 0 0 0 0 6
0 0 0 0 0 0 2 24 42 40 21 28 0 0 0 0 0 0 0 0 0 0
0 0 0 0 0 0 15 17 39 31 11 2 4 0 0 0 0 0 0 0 0 0
0 0 0 0 0 4 14 21 27 5 4 0 0 0 0 0 0 0 0 0 0 2
0 0 0 0 0 9 3 0 11 4 0 1 0 0 0 0 0 2 0 3 3 0
0 0 0 0 0 0 0 19 1 0 0 0 0 0 0 0 0 0 1 1 0 0
0 0 0 0 0 0 4 15 0 0 0 0 0 0 0 0 0 0 0 0 0 0
0 0 0 0 0 10 17 15 2 1 0 0 0 0 0 0 0 0 0 0 0 0
0 0 0 0 0 7 5 5 0 0 0 0 0 0 0 0 0 0 0 0 0 0
0 0 0 0 0 2 2 1 0 0 0 0 0 0 0 0 0 0 0 0 0 0
0 0 0 0 0 0 2 0 0 0 0 0 0 0 0 0 0 0 0 0 0 0
0 0 0 0 0 0 0 0 0 0 0 0 0 0 0 0 0 0 0 0 0 0
0 0 0 0 0 0 0 0 0 0 0 0 0 0 0 0 0 0 0 0 0 0

GFSNIL_con_mucape_012.txt.gz
CAPE
0 0 0 0 0 0 0 0 0 0 0 0 0 1 6 6 0 0 0 0 0 0
0 0 0 0 0 0 0 0 0 4 8 5 4 9 9 2 0 0 0 0 0 0
0 0 0 0 0 0 0 0 0 10 17 22 7 0 0 0 0 0 0 0 0 0
0 0 0 0 0 0 0 1 8 18 12 0 2 0 0 0 0 0 0 0 0 0
0 0 0 0 0 0 0 0 8 13 3 5 4 0 0 0 0 0 0 0 0 0
0 0 0 0 0 0 0 0 1 7 11 2 0 0 0 0 0 0 0 0 0 0
0 0 0 0 0 0 0 4 4 8 4 0 1 0 0 0 0 0 0 0 0 0
0 0 0 0 0 0 0 17 18 12 8 0 0 0 0 0 0 0 0 0 0 0
0 0 0 0 0 0 5 8 0 2 0 0 0 0 0 0 0 0 0 0 0 0
0 0 0 0 0 0 2 1 0 0 0 0 0 0 0 0 0 0 0 0 0 0
0 0 0 0 0 0 0 5 9 2 0 0 0 0 0 0 0 0 0 0 0 0
0 0 0 0 0 0 0 0 0 0 0 0 0 0 0 0 0 0 0 0 0 0
0 0 0 0 0 0 0 0 0 0 0 0 0 0 0 0 0 0 0 0 0 0
0 0 0 0 0 0 0 0 1 0 0 0 0 0 0 0 0 0 0 0 0 0

GFSNIL_con_mucape_015.txt.gz
CAPE
0 0 0 0 0 0 0 0 0 0 0 0 9 9 0 0 0 0 0 0 0 0
0 0 0 0 0 0 0 0 0 0 0 11 16 0 0 0 2 1 7 1 27 32
0 0 0 0 0 0 0 0 0 0 12 17 19 0 0 2 3 4 0 0 27 40
0 0 0 0 0 0 0 0 0 7 12 15 16 7 4 2 0 0 0 0 9 1
0 0 0 0 0 0 0 0 0 0 6 10 28 3 0 0 0 0 0 0 0 0
0 0 0 0 0 0 0 0 0 0 10 9 24 3 0 0 0 0 0 0 0 0
0 0 0 0 0 0 0 0 18 25 22 8 5 4 0 0 0 0 0 0 0 0
0 0 0 0 0 0 0 4 38 27 8 1 1 0 0 0 0 0 0 0 0 0
0 0 0 0 0 0 0 2 9 0 0 0 0 2 0 0 0 0 0 0 0 0
0 0 0 0 0 0 0 0 2 6 14 5 2 0 0 0 0 0 0 0 0 0
0 0 0 0 0 0 0 0 1 2 0 0 0 0 0 0 0 0 0 0 0 0
0 0 0 0 0 0 0 0 0 0 0 0 0 0 0 0 0 0 0 0 0 0
0 0 0 0 0 0 0 0 0 0 0 0 0 0 0 0 0 0 0 0 0 0
0 0 0 0 0 0 0 0 0 0 0 0 0 0 0 0 0 0 0 0 0 0

GFSNIL_con_mucape_018.txt.gz
CAPE
17 2 0 0 0 0 0 0 0 0 3 23 20 8 4 60 50 25 16 11 16 14
6 0 0 0 0 0 0 0 0 4 21 42 46 48 43 70 61 49 33 27 32 29
0 0 0 0 0 0 0 0 0 4 30 46 61 80 55 73 70 44 38 31 30 37
0 0 0 0 0 0 0 0 0 0 15 48 56 36 69 82 97 60 22 23 19 43
0 0 0 0 0 0 0 0 2 6 15 34 54 62 68 91 42 13 22 27 33 38
0 0 0 0 0 0 0 1 6 15 39 42 54 60 55 5 0 21 25 19 20 24
0 0 0 0 0 0 0 2 9 36 45 53 15 11 10 5 0 0 0 0 0 15
0 0 0 0 0 0 1 6 17 21 41 41 30 7 0 0 0 15 2 0 1 0
0 0 0 0 0 2 3 6 10 20 50 64 14 0 5 0 0 0 0 0 0 0
0 0 0 0 0 3 4 8 15 36 50 35 0 0 0 0 0 0 0 0 0 0
0 0 0 0 0 6 11 14 28 36 26 8 0 0 0 0 0 0 0 0 0 0
0 0 0 0 0 7 15 20 26 15 9 17 0 0 0 0 0 0 0 0 0 0
0 0 0 0 0 5 17 8 4 0 0 0 0 0 0 0 0 0 0 0 0 0
0 0 0 0 4 9 17 0 2 0 0 0 0 0 0 0 0 0 0 0 0 0

GFSNIL_con_mucape_021.txt.gz
CAPE
0 4 0 0 0 0 0 0 0 0 0 1 9 20 33 22 73 62 54 50 53 57
4 0 0 0 0 0 0 0 0 0 0 6 12 24 51 74 82 59 52 78 69 58
2 1 0 0 0 0 0 0 0 0 0 0 10 71 82 60 65 81 88 88 39 45
16 0 0 0 0 0 0 0 0 0 0 2 8 26 39 45 59 66 91 90 39 58
0 0 0 0 0 0 0 0 0 0 4 14 27 27 49 50 69 75 44 39 46 39
0 0 0 0 0 0 0 0 0 4 10 18 33 41 51 35 31 35 38 32 26 27
0 0 0 0 0 0 0 0 3 7 13 32 34 28 26 15 31 35 33 24 31 28
0 0 0 0 0 0 1 3 5 9 20 32 33 13 14 19 39 34 25 22 13 7
0 0 0 0 0 0 1 6 7 14 20 36 28 0 0 0 0 5 19 13 4 1
0 0 0 0 0 0 4 9 19 21 17 29 14 0 0 0 0 3 13 6 0 0
0 0 0 0 0 0 6 14 13 20 24 23 5 0 0 0 0 8 9 0 0 0
0 0 0 0 0 0 3 10 18 21 18 14 11 0 0 0 0 7 0 0 0 0
0 0 0 0 0 0 5 8 20 9 6 5 11 0 0 0 0 0 0 0 0 0
0 0 0 0 0 4 6 15 12 13 5 10 0 0 0 0 0 0 0 0 0 0

GFSNIL_con_mucape_024.txt.gz
CAPE
0 0 0 9 22 15 0 0 0 0 0 0 0 0 4 0 4 3 8 0 0 0
0 0 1 14 19 0 0 0 0 0 0 0 0 1 4 14 18 33 27 12 9 0
0 0 11 21 0 0 0 0 0 0 0 0 0 0 3 30 22 16 16 23 11 10
7 5 15 1 0 0 0 0 0 0 0 0 0 7 11 9 17 15 17 24 17 5
11 9 16 0 0 0 0 0 0 0 0 0 2 6 7 6 13 15 9 8 1 2
15 27 1 0 0 0 0 0 0 0 0 0 5 24 7 10 0 0 0 6 1 0
20 23 0 0 0 0 0 0 0 0 0 5 8 9 4 0 0 1 2 0 0 0
30 18 0 0 0 0 0 0 0 0 0 4 18 3 3 2 0 0 0 0 0 0
22 0 0 0 0 0 0 0 2 0 2 7 6 8 2 0 0 0 0 0 0 0
0 0 0 0 0 0 0 0 1 8 1 2 1 0 0 0 0 0 0 0 0 0
2 0 0 0 0 0 0 0 0 2 3 3 5 0 1 0 0 0 0 0 0 0
0 0 0 0 0 0 0 0 0 0 3 2 0 0 0 0 0 0 0 0 0 0
0 0 0 0 0 0 0 0 1 1 2 0 0 0 0 0 0 0 0 0 0 0
0 0 0 0 0 0 0 0 1 1 0 0 0 0 0 0 0 0 0 0 0 0

GFSNIL_con_mucape_027.txt.gz
CAPE
0 0 0 0 1 3 14 5 0 0 0 0 0 0 0 0 0 0 0 2 5 2
0 0 4 6 4 18 10 1 0 0 0 0 0 0 0 0 1 12 14 12 21 20
8 12 14 9 14 17 3 0 0 0 0 0 0 0 0 0 0 1 2 4 9 14
3 3 8 4 8 13 1 0 0 0 0 0 0 0 0 0 0 2 0 0 1 2
0 3 23 30 36 1 0 0 0 0 0 0 0 0 0 0 0 0 0 0 0 2
9 5 13 33 0 9 0 0 0 0 0 0 0 0 0 1 0 1 0 0 0 0
13 12 17 1 9 0 1 0 0 0 0 0 0 0 0 3 12 7 0 0 0 0
11 12 13 0 0 0 0 3 0 0 0 0 0 0 0 11 10 13 1 0 0 0
9 9 10 1 0 0 4 0 0 0 0 0 0 0 0 1 2 0 0 0 0 0
12 8 6 0 0 0 0 0 0 0 0 0 0 0 0 0 0 0 0 0 0 0
3 1 0 0 0 0 0 0 0 0 0 0 1 0 0 0 1 2 0 0 0 0
0 0 0 0 0 0 0 0 0 0 0 0 0 1 2 1 0 0 0 0 0 0
0 0 0 0 0 0 0 0 0 0 0 1 2 10 5 0 0 0 0 0 0 0
0 0 0 0 0 0 0 0 0 0 4 1 0 1 0 0 0 0 0 0 0 0

GFSNIL_con_mucape_030.txt.gz
CAPE
62 71 37 12 21 29 15 0 1 1 0 0 0 0 0 0 0 0 0 0 0 6
82 69 44 35 27 6 0 0 0 4 0 0 0 0 0 0 0 0 0 0 0 3
11 13 15 15 0 1 4 1 7 1 0 0 0 0 0 0 0 0 0 0 0 0
4 11 9 11 13 31 7 3 5 0 0 0 0 0 0 0 0 0 0 0 0 0
34 24 20 28 22 17 21 4 11 0 0 0 0 0 0 0 0 0 0 0 2 1
57 18 17 13 12 6 3 1 0 0 0 0 0 0 0 0 0 0 4 6 0 0
61 12 8 9 3 0 0 0 0 0 0 0 0 0 0 0 0 10 13 6 8 0
32 13 10 9 9 4 0 0 0 0 0 0 0 0 0 0 0 4 10 2 0 0
31 22 16 13 10 4 0 0 0 0 0 0 0 0 0 0 0 0 0 0 0 0
30 17 14 10 7 4 0 0 0 0 0 0 0 0 0 0 0 0 0 0 0 0
13 5 5 7 0 0 0 0 0 0 0 0 0 0 0 0 2 1 2 0 0 0
10 3 2 0 0 0 0 0 0 0 0 0 0 0 1 3 4 0 0 0 0 0
4 0 0 0 0 0 0 0 0 0 0 0 0 0 1 7 3 0 0 0 0 0
6 0 0 0 0 0 0 0 0 0 0 0 0 0 3 3 0 0 0 0 0 0

GFSNIL_con_mucape_033.txt.gz
CAPE
85 217 128 94 80 57 39 19 14 12 4 0 9 8 0 0 0 0 0 0 0 0
310 363 346 203 87 55 33 25 4 7 4 3 7 1 0 0 0 0 0 0 0 0
343 68 62 44 20 19 24 15 10 1 6 10 1 0 0 0 0 0 0 0 0 0
56 72 41 23 25 18 14 4 14 7 10 17 11 0 0 0 0 0 0 0 0 0
52 30 45 55 26 32 25 13 14 5 6 6 5 0 0 0 0 0 0 0 0 0
39 53 51 37 26 7 10 9 16 12 5 1 0 0 0 0 0 0 0 0 0 0
38 44 47 32 27 15 10 15 14 8 6 0 0 0 0 0 0 0 0 0 0 0
44 51 53 31 13 15 17 12 11 11 3 0 0 0 0 0 0 0 0 0 0 0
58 29 23 11 25 14 10 13 5 0 0 0 0 0 0 0 0 0 0 0 0 0
61 46 35 35 18 14 8 0 0 0 0 0 0 0 0 0 0 0 0 0 0 0
39 48 30 23 18 4 0 0 0 0 0 0 0 0 0 0 0 0 0 0 0 0
43 22 14 13 0 0 0 0 0 0 0 0 0 0 0 0 0 1 3 0 0 0
44 4 0 6 0 0 0 0 0 0 0 0 0 0 0 0 2 4 3 0 0 0
13 11 1 0 0 0 0 0 0 0 0 0 0 0 0 0 1 2 5 5 0 0

GFSNIL_con_mucape_036.txt.gz
CAPE
331 342 163 90 81 74 50 63 82 72 58 4 14 12 10 8 9 0 0 0 0 0
413 447 129 82 57 68 71 75 99 80 44 20 44 16 9 8 2 0 0 0 0 0
578 387 246 142 120 128 107 74 87 83 43 23 6 12 5 2 0 0 0 0 0 0
534 375 250 111 85 73 69 74 62 58 23 5 21 18 9 5 0 0 0 0 0 0
426 206 60 58 41 28 36 24 18 10 19 13 13 13 3 0 0 0 0 0 0 0
84 69 48 10 29 24 26 15 0 2 8 4 3 0 0 0 0 0 0 0 0 0
55 43 28 40 32 35 14 18 4 10 8 4 0 0 0 0 0 0 0 0 0 0
54 35 31 40 31 35 13 20 9 1 4 0 0 0 0 0 0 0 0 0 0 0
59 37 43 53 53 44 12 0 22 0 0 0 0 0 0 0 0 0 0 0 0 0
65 51 61 61 38 10 3 23 6 18 0 0 0 0 0 0 0 0 0 0 1 0
68 90 100 87 38 34 25 0 0 0 0 0 0 0 0 0 0 0 0 0 2 2
64 66 65 35 45 21 0 0 0 0 0 0 0 0 0 0 0 0 0 3 6 5
20 32 4 9 6 0 0 0 0 0 0 0 0 0 0 0 0 0 0 0 0 4
2 5 0 0 0 0 0 0 0 0 0 0 0 0 0 0 0 0 0 0 0 6

GFSNIL_con_mucape_039.txt.gz
CAPE
408 336 260 277 263 181 61 48 37 40 40 47 64 59 3 3 2 0 0 0 0 0
303 325 142 185 194 301 54 54 42 50 63 64 71 29 9 4 0 0 0 0 0 0
290 350 356 274 265 83 70 35 67 43 49 81 51 4 0 0 0 2 0 0 0 0
531 446 367 296 297 135 87 68 52 38 44 24 1 0 0 0 0 0 0 0 0 0
604 388 352 313 165 110 78 60 75 63 28 1 3 0 0 0 0 0 0 0 0 0
448 314 185 198 84 42 51 46 25 23 22 7 3 0 0 0 0 0 0 0 0 0
186 119 66 44 34 49 35 23 22 7 11 1 4 6 0 0 0 0 0 0 0 0
99 56 55 55 50 51 50 27 12 4 1 0 0 0 0 0 0 0 0 0 0 0
73 60 49 69 43 51 40 1 4 11 0 0 0 0 0 0 0 0 0 0 0 0
2 15 68 42 31 33 11 5 8 0 0 0 0 0 0 0 0 0 0 0 0 0
0 0 10 20 13 50 9 0 0 0 0 0 0 0 0 0 0 0 0 0 0 0
0 0 0 0 0 0 0 0 0 0 0 0 0 0 0 0 0 0 0 0 0 0
0 0 0 0 0 0 0 0 0 0 0 0 0 0 0 0 0 0 0 0 0 0
0 0 0 0 0 0 0 0 0 0 0 0 0 0 0 0 0 0 0 0 0 0

GFSNIL_con_mucape_042.txt.gz
CAPE
359 294 166 286 124 211 286 239 237 300 107 102 47 46 49 49 13 6 2 0 0 0
289 137 190 195 226 228 217 231 391 161 80 55 60 50 44 10 2 1 0 0 0 0
365 196 281 247 261 215 172 84 68 34 35 18 48 23 10 6 4 0 0 0 0 0
379 402 468 404 237 236 118 53 62 49 39 42 31 14 12 9 0 0 0 0 0 0
427 410 322 182 150 119 68 67 89 85 47 50 17 6 2 11 5 0 0 0 0 0
354 291 210 112 84 80 59 64 111 111 58 40 15 5 5 2 2 0 0 0 0 0
370 260 180 52 52 53 39 36 58 39 43 16 9 4 1 0 0 0 0 0 0 0
268 212 90 67 51 29 19 35 39 20 8 1 9 8 0 0 0 0 0 0 0 6
21 25 12 1 15 17 31 46 6 0 0 6 13 0 0 0 0 0 0 0 8 9
0 0 0 2 4 6 3 0 0 0 1 0 0 0 0 0 0 0 0 3 2 1
0 0 0 0 0 0 0 0 3 0 0 0 0 0 4 0 0 0 0 0 0 1
0 0 0 0 0 0 0 0 0 0 0 0 0 0 0 0 0 0 0 0 0 0
0 0 0 0 0 0 0 0 0 0 0 0 0 0 0 0 0 0 0 0 0 0
0 0 0 0 0 0 0 0 0 0 0 0 0 0 0 0 0 0 0 0 3 27

GFSNIL_con_mucape_045.txt.gz
CAPE
1346 1196 759 372 176 115 91 70 62 169 249 268 105 84 48 19 24 47 50 23 1 0
1123 902 966 474 312 175 81 105 155 207 179 145 37 56 15 6 41 2 4 2 1 0
874 629 521 386 248 216 196 191 293 169 42 25 13 36 14 15 22 6 13 14 12 0
688 612 508 318 261 254 145 111 183 64 33 19 30 32 35 27 15 11 3 7 1 0
786 733 472 727 383 251 56 26 20 25 46 46 23 30 58 22 29 0 1 0 0 0
879 708 860 522 446 326 66 47 39 67 45 48 49 89 30 35 23 10 0 0 0 0
656 375 307 293 240 147 84 114 61 58 72 44 75 48 29 1 12 0 0 0 0 0
359 335 262 224 158 100 55 52 76 47 28 5 21 0 0 0 0 0 0 0 0 0
233 130 88 53 25 0 1 0 2 12 8 8 10 2 0 0 0 0 0 0 0 5
0 0 0 0 0 0 0 1 2 3 3 0 1 0 0 0 0 0 2 2 5 1
0 0 0 0 0 0 0 0 0 0 0 0 0 0 0 0 0 0 0 0 1 5
0 0 0 0 0 0 0 0 0 0 0 0 0 0 0 0 0 0 0 0 0 0
0 0 0 0 0 0 0 0 0 0 0 0 0 0 0 0 0 0 0 0 0 2
0 0 0 0 0 0 0 0 0 0 0 0 0 0 0 0 0 0 0 0 0 8

GFSNIL_con_mucape_048.txt.gz
CAPE
621 854 874 632 515 292 122 23 126 87 35 40 96 130 77 92 43 25 3 0 17 39
425 826 1022 892 588 320 68 43 90 108 87 119 171 135 123 31 41 1 0 8 14 3
349 222 877 756 500 270 177 109 149 95 148 274 123 45 18 27 3 3 10 16 11 0
729 448 720 653 498 287 159 95 276 125 224 162 10 18 39 38 17 2 28 2 12 3
926 779 589 318 319 336 217 326 209 110 98 128 40 43 66 30 11 22 11 18 0 0
1144 927 659 541 450 437 413 304 215 40 23 21 42 59 27 25 9 11 1 2 1 0
1111 897 846 532 514 573 313 307 124 44 137 58 30 28 13 5 8 4 1 0 0 0
991 742 564 408 325 229 196 134 112 74 8 18 23 23 12 18 14 4 0 0 0 0
494 213 238 229 159 117 67 10 0 0 0 0 5 6 8 7 0 0 0 0 0 0
306 213 68 0 0 0 0 0 0 0 0 2 2 2 0 0 0 0 0 0 0 0
10 0 0 0 0 0 0 0 0 0 0 0 0 0 0 0 0 0 0 0 0 0
0 0 0 0 0 0 0 0 0 0 0 0 0 0 0 0 0 0 0 0 0 0
0 0 0 0 0 0 0 0 0 0 0 0 0 0 0 0 0 0 0 0 0 0
0 0 0 0 0 0 0 0 0 0 0 0 0 0 0 0 0 0 0 0 0 0

GFSNIL_con_mucape_051.txt.gz
CAPE
291 291 249 45 293 225 154 270 96 143 152 163 149 103 50 46 64 55 98 29 23 0
167 209 313 274 407 345 354 309 178 46 54 146 153 190 80 97 54 26 26 48 13 0
429 330 513 703 535 576 495 349 287 92 55 117 223 89 67 159 20 61 54 9 15 3
774 796 640 605 673 567 441 300 233 157 145 170 168 130 127 46 61 60 23 0 13 4
541 430 734 395 676 615 395 292 244 140 138 85 88 139 120 78 17 36 50 48 0 1
507 575 649 588 603 428 369 251 180 199 89 141 217 81 24 28 45 9 9 5 9 7
863 844 894 725 776 412 335 298 167 117 188 154 69 35 25 24 10 17 15 5 8 15
1048 1017 753 822 869 469 294 240 132 158 174 50 4 25 12 22 18 16 2 5 8 1
1079 1010 736 586 611 206 142 135 42 59 0 9 6 8 10 0 6 9 12 0 0 0
755 764 459 290 143 59 16 0 0 0 0 0 0 4 1 1 0 0 0 0 0 0
325 191 137 33 0 0 0 0 0 0 0 0 0 0 0 0 0 0 0 0 0 0
114 22 0 0 0 0 0 0 0 0 0 0 0 0 0 0 0 0 0 0 0 0
0 0 0 0 0 0 0 0 0 0 0 0 0 0 0 0 0 0 0 0 0 0
0 0 0 0 0 0 0 0 0 0 0 0 0 0 0 0 0 0 0 0 0 0

GFSNIL_con_mucape_054.txt.gz
CAPE
1 37 30 51 74 67 0 37 114 152 141 51 22 124 92 74 99 68 67 57 46 13
20 44 109 94 88 158 36 26 85 135 174 37 194 184 129 131 117 151 57 67 40 6
34 21 76 144 221 222 104 149 223 141 96 153 61 107 128 151 57 55 73 28 20 3
88 68 84 91 173 247 204 199 252 287 149 227 68 60 105 113 91 60 72 36 19 8
130 95 50 171 257 407 198 225 247 226 212 141 102 126 121 74 36 71 34 23 0 4
314 345 231 281 318 272 174 302 205 167 155 102 78 77 49 23 60 32 22 6 2 3
307 362 364 289 99 168 247 383 377 395 275 89 29 28 111 44 29 21 11 10 0 2
499 514 594 535 378 416 742 463 197 364 269 82 34 38 97 29 9 15 4 10 12 4
389 512 619 457 514 552 423 244 205 66 62 64 45 78 4 5 0 7 12 2 10 10
703 728 564 603 429 408 183 162 132 112 61 15 5 6 4 7 6 7 3 0 1 0
468 446 468 299 195 115 113 53 10 2 1 3 2 1 1 2 2 1 0 0 0 0
490 308 250 293 174 42 0 0 0 0 0 0 0 0 0 0 0 0 0 0 0 0
377 246 116 85 7 0 0 0 0 0 0 0 0 0 0 0 0 0 0 0 0 0
63 51 24 0 0 0 0 0 0 0 0 0 0 0 0 0 0 0 0 0 0 0

GFSNIL_con_mucape_057.txt.gz
CAPE
0 0 0 0 0 0 0 4 28 12 33 66 155 138 51 1 87 76 85 83 58 26
0 0 0 0 3 3 23 33 51 112 33 57 142 107 56 24 90 94 100 85 86 11
0 0 0 0 32 23 30 26 58 140 99 46 105 138 58 85 122 131 158 67 39 49
0 0 0 0 0 19 84 99 144 130 107 48 69 106 142 128 87 101 111 28 65 30
3 19 14 15 9 28 29 73 105 142 149 0 110 114 79 56 69 82 90 36 17 21
34 33 65 50 59 35 48 55 63 245 155 172 139 144 240 70 107 182 35 18 44 28
142 95 97 46 46 69 159 146 55 214 171 183 175 251 208 137 57 72 22 29 24 18
216 211 131 154 272 363 380 310 300 380 286 342 376 234 109 95 29 42 13 25 19 7
261 303 348 205 304 502 463 453 170 139 469 316 103 141 53 4 10 9 23 2 8 2
294 383 409 366 500 442 373 379 193 279 318 191 147 127 46 24 5 8 5 7 5 8
334 404 354 246 126 209 250 210 258 302 152 138 77 61 19 4 5 2 5 7 8 6
467 374 386 303 240 214 236 355 175 123 60 45 21 4 7 1 6 4 3 4 4 0
399 384 310 358 427 208 58 25 58 22 2 4 5 3 1 2 2 0 0 0 0 0
251 220 222 193 160 80 70 39 0 0 0 0 0 0 0 0 0 0 0 0 0 0

GFSNIL_con_mucape_060.txt.gz
CAPE
0 0 0 0 0 0 0 0 0 0 0 18 26 15 21 20 28 54 45 42 72 41
0 0 0 0 0 0 0 0 0 0 0 0 1 42 9 29 72 52 39 64 59 61
0 0 0 0 0 0 0 0 0 0 0 2 25 56 57 42 80 66 26 60 91 119
0 0 0 0 0 5 6 21 11 15 23 31 123 66 91 71 71 92 45 80 110 131
0 0 0 0 0 0 0 0 0 0 6 32 112 99 99 26 69 97 88 85 68 120
4 0 1 0 2 3 9 9 1 0 8 78 118 159 177 45 51 74 121 49 79 100
131 46 0 30 20 22 33 35 32 1 14 46 71 44 147 151 139 126 351 82 111 58
100 110 153 128 75 41 49 91 78 56 63 102 194 140 212 195 228 138 75 68 26 17
64 86 134 236 210 136 103 131 136 117 194 200 252 287 313 238 145 77 53 40 45 16
70 56 79 152 197 218 190 176 135 170 284 165 248 259 219 188 84 69 55 36 40 53
78 70 88 149 182 224 281 252 187 290 432 455 117 189 163 117 58 54 57 35 18 8
104 112 159 207 266 293 229 346 331 284 338 202 156 155 103 69 81 88 72 13 9 5
260 313 247 246 245 265 174 72 107 140 142 114 151 103 55 16 17 11 4 6 8 3
501 456 369 154 206 206 108 116 85 128 141 162 60 31 2 2 3 6 5 4 0 0

GFSNIL_con_mucape_063.txt.gz
CAPE
0 0 0 1 1 0 14 25 10 26 34 32 48 91 137 131 124 61 20 32 5 43
0 0 0 0 0 0 0 0 0 4 5 5 21 58 108 135 132 50 18 28 60 44
0 0 0 0 0 0 0 0 0 0 0 0 0 21 43 49 23 62 64 19 61 46
0 0 0 0 0 0 0 0 0 0 0 0 0 1 2 2 75 60 63 63 41 54
0 0 0 0 0 0 0 0 0 3 0 0 0 0 10 22 35 36 52 15 24 86
1 0 0 0 0 0 0 0 0 0 0 0 6 3 0 13 22 65 70 51 18 78
136 129 71 0 4 0 5 2 3 1 0 0 2 11 8 10 71 58 33 47 74 141
94 91 95 100 100 40 0 11 14 20 24 40 24 9 11 10 63 14 74 110 110 78
43 48 58 57 67 77 90 24 37 31 37 64 65 96 73 81 67 237 206 260 87 28
22 17 20 17 15 40 90 184 144 104 70 81 138 81 188 190 132 241 99 138 57 45
60 55 51 53 49 30 70 174 187 172 83 116 110 178 240 127 184 237 151 57 68 65
118 100 77 64 65 89 128 194 188 211 464 400 236 108 80 150 71 169 100 52 66 79
145 165 161 159 229 219 223 335 195 280 175 226 86 84 87 62 141 131 118 92 5 45
235 248 256 331 323 275 153 122 106 144 72 86 168 186 112 85 160 126 58 4 26 10

GFSNIL_con_mucape_069.txt.gz
CAPE
0 0 0 13 60 6 3 8 61 66 38 102 97 162 167 244 132 286 199 347 312 441
24 17 4 33 33 61 35 0 3 26 87 129 150 157 153 162 201 111 142 450 448 450
17 27 11 31 38 38 16 15 20 30 51 45 28 63 89 86 201 208 272 371 459 483
33 28 44 56 86 48 90 40 35 16 45 45 54 80 113 107 132 186 219 280 353 377
166 114 186 107 157 129 121 158 52 118 88 86 69 103 103 128 95 138 202 259 294 230
265 301 366 353 327 274 213 190 121 87 69 79 102 129 155 151 137 153 141 174 264 161
268 264 352 341 330 306 280 218 163 89 63 85 66 82 93 91 114 131 114 111 148 31
325 243 189 257 256 220 217 192 178 176 166 155 122 46 78 99 87 43 27 67 17 0
233 201 231 295 291 238 206 201 199 166 188 193 60 0 0 0 223 34 79 53 0 5
327 269 298 267 240 236 264 277 237 205 181 179 208 57 65 18 1 54 9 6 16 42
486 417 351 278 251 286 293 275 269 299 252 236 175 41 59 94 105 62 31 28 38 49
630 526 431 367 352 361 361 323 287 249 211 151 198 57 83 120 96 167 148 103 141 167
657 583 573 636 569 492 387 310 215 71 83 89 107 154 156 169 172 226 211 187 277 290
456 662 637 575 652 640 245 162 145 124 113 142 98 143 134 156 152 130 185 124 60 109

GFSNIL_con_mucape_075.txt.gz
CAPE
0 0 0 0 0 0 12 18 20 14 41 59 63 76 108 107 93 63 44 50 31 10
4 0 0 0 0 3 5 14 10 13 13 43 62 56 74 80 82 67 56 43 34 26
2 7 0 0 0 0 1 9 18 31 7 22 16 37 59 65 59 64 46 32 22 19
2 16 2 0 0 0 0 0 1 13 14 7 7 17 19 11 20 24 14 9 5 6
5 4 0 1 0 0 0 0 0 0 0 0 0 0 2 2 5 9 5 2 9 2
0 0 2 9 3 1 0 0 0 0 0 0 0 0 0 0 0 0 0 0 0 0
0 0 0 3 16 28 0 0 0 0 0 0 0 0 0 0 0 0 0 0 0 0
33 18 5 4 6 1 1 0 0 0 0 0 0 0 0 0 0 0 0 0 0 0
92 55 59 38 17 8 12 16 3 6 1 0 0 0 0 0 0 0 0 0 0 0
176 159 136 92 64 58 40 18 14 19 23 17 24 35 32 34 6 4 6 8 4 1
159 257 227 197 151 110 103 101 103 102 84 54 49 30 41 61 51 48 35 34 20 9
255 282 198 154 208 209 149 126 128 139 135 121 144 117 137 138 135 155 92 94 62 78
338 159 257 226 195 163 135 127 118 105 117 136 141 142 159 164 146 205 215 145 118 77
0 15 95 228 296 261 231 234 213 150 145 187 195 131 140 144 171 128 180 88 84 84

GFSNIL_con_mucape_078.txt.gz
CAPE
0 0 0 0 0 0 1 17 32 25 19 9 24 10 30 52 91 111 107 95 62 54
0 0 0 0 0 0 2 9 16 24 14 28 34 32 63 77 86 100 112 103 68 55
6 4 0 0 0 0 0 2 12 21 23 13 13 18 48 78 82 66 64 76 74 41
3 5 4 0 0 0 0 0 0 1 10 7 12 20 45 43 42 49 41 45 40 27
3 0 5 4 4 0 0 0 0 0 1 5 3 3 4 6 19 25 35 40 34 9
0 0 1 1 1 5 2 0 0 0 0 0 0 1 0 0 4 6 1 9 1 0
0 0 0 2 2 1 5 13 0 0 0 0 0 0 0 0 0 0 0 0 0 0
39 0 0 0 0 0 2 8 44 21 0 0 0 0 0 0 0 0 0 0 0 0
99 92 75 53 22 0 5 7 0 15 6 0 0 0 0 0 0 0 0 0 0 0
102 124 123 108 103 95 89 54 16 5 9 19 28 11 1 0 1 2 4 1 0 0
108 94 125 131 121 106 100 79 83 94 87 52 46 35 38 24 12 20 25 23 25 30
101 144 156 133 111 99 71 88 110 104 89 82 131 88 99 96 86 86 139 158 173 62
0 28 118 135 137 167 119 130 126 99 119 109 136 135 146 152 192 111 128 112 101 91
0 0 0 0 6 53 132 209 176 152 130 145 169 161 174 201 227 178 204 195 120 102

GFSNIL_con_mucape_081.txt.gz
CAPE
0 0 0 0 1 2 4 5 8 18 23 15 4 22 68 52 50 54 36 46 32 45
0 0 0 0 0 0 0 1 29 24 27 7 0 20 46 34 0 8 0 2 47 50
1 0 0 0 0 0 0 0 15 18 28 26 17 25 29 21 24 7 13 21 51 54
0 1 0 0 0 0 0 0 0 7 21 22 22 13 41 33 15 23 29 45 51 56
5 3 1 0 0 0 0 0 0 0 4 20 20 10 11 24 26 36 37 37 34 28
7 6 5 1 0 0 0 0 0 0 0 0 0 0 0 6 6 9 11 23 25 28
0 3 5 4 3 2 3 5 0 0 0 0 0 0 0 0 0 1 3 14 22 24
15 0 0 0 0 2 4 2 16 4 3 0 0 0 0 0 0 0 0 0 0 0
94 109 74 44 16 12 8 0 0 1 4 4 9 2 0 2 4 2 0 0 0 0
105 82 94 100 103 106 82 72 74 78 59 36 22 7 1 1 1 0 0 0 0 0
150 137 138 119 117 97 83 85 84 85 95 104 95 93 78 75 75 60 38 15 5 3
77 76 80 85 86 84 74 84 92 74 70 80 111 125 129 110 116 123 130 248 158 110
0 0 16 28 53 64 64 63 71 73 45 83 104 205 124 143 161 176 170 219 201 85
0 0 0 0 0 0 0 0 4 55 71 95 119 131 171 140 130 153 176 189 139 156

GFSNIL_con_mucape_084.txt.gz
CAPE
9 0 7 0 3 33 31 35 30 31 23 15 22 17 0 82 75 92 84 84 71 38
1 0 12 0 0 25 24 17 26 16 1 4 16 19 7 0 0 50 43 82 62 60
0 0 0 0 0 5 16 9 9 10 12 27 23 4 5 14 20 5 49 42 43 36
19 2 0 0 0 0 0 0 0 4 7 19 35 6 5 3 31 46 45 29 21 15
3 3 3 0 0 0 0 0 0 0 4 27 15 17 21 15 5 30 24 7 10 5
6 7 3 4 0 0 0 0 0 0 0 4 10 13 16 25 21 26 38 38 33 43
1 2 5 2 5 0 0 0 0 0 0 0 0 1 1 5 0 2 7 10 13 12
7 0 0 0 0 0 1 1 1 0 0 0 0 0 0 0 0 0 0 0 0 7
98 72 40 14 0 0 0 0 0 0 0 3 0 2 0 0 1 1 2 0 0 0
97 95 99 90 82 71 61 49 37 37 33 56 41 32 10 7 2 1 1 0 0 0
106 76 102 103 99 95 107 92 83 68 110 130 89 72 68 61 80 136 90 53 38 44
25 24 37 45 73 49 76 86 66 53 35 37 28 27 32 51 82 94 130 129 111 48
2 2 4 8 12 7 24 38 91 94 48 42 16 14 9 6 27 65 92 100 49 47
0 0 0 0 0 0 0 0 9 24 27 34 53 54 48 69 80 89 113 133 118 67

GFSNIL_con_mucape_087.txt.gz
CAPE
3 2 3 10 12 20 27 27 38 53 40 1 0 1 0 0 16 30 82 75 76 91
1 0 0 4 3 11 40 32 54 21 20 11 18 13 6 14 1 0 41 77 90 90
3 1 0 4 6 11 23 7 34 12 29 25 26 9 6 3 2 2 2 0 63 61
9 6 0 0 0 14 8 14 45 33 20 17 0 4 1 2 0 6 6 8 1 39
7 4 0 0 0 0 0 0 0 2 4 16 4 18 33 2 0 5 4 0 6 0
4 3 4 7 0 0 0 0 0 0 0 0 0 10 5 7 7 2 2 14 5 36
9 13 4 0 0 4 8 0 0 0 0 0 3 1 2 15 21 16 28 12 22 21
16 20 21 19 15 4 0 0 0 0 0 0 0 2 2 0 1 9 4 2 2 15
0 2 21 19 16 19 11 4 3 3 0 0 0 0 0 0 4 6 1 3 11 9
42 27 14 4 4 2 2 5 3 6 6 11 5 4 2 3 1 2 6 9 18 20
131 82 74 99 87 125 86 61 27 21 50 11 11 11 8 13 22 24 31 23 12 15
52 75 110 71 67 70 65 62 138 62 46 82 119 50 41 50 54 55 45 27 102 25
4 0 3 2 2 2 0 15 10 69 48 117 83 61 43 42 42 56 22 37 22 31
0 0 0 0 0 0 0 0 2 2 3 7 26 68 57 37 39 48 43 57 60 37

GFSNIL_con_mucape_090.txt.gz
CAPE
132 73 53 6 5 12 3 6 5 10 18 3 4 43 50 60 27 66 140 176 183 204
74 29 20 4 1 11 13 31 23 4 47 65 70 45 34 8 0 63 103 129 189 170
14 20 29 32 4 5 14 26 34 5 43 39 35 24 0 0 1 5 0 0 102 56
5 6 0 2 4 5 13 20 6 4 28 4 0 4 0 0 1 1 3 6 5 0
0 12 0 0 15 1 1 1 29 5 0 2 0 0 2 5 5 3 0 0 0 1
10 16 15 28 0 36 8 5 0 25 28 32 18 17 11 11 6 2 1 2 6 7
24 9 11 19 0 0 24 15 35 16 5 8 4 2 5 7 0 0 0 3 3 3
14 8 2 3 0 1 1 0 37 41 45 51 41 4 0 0 0 0 10 32 11 22
30 36 40 21 11 2 4 4 3 0 27 48 27 9 0 30 44 39 41 50 59 60
7 4 27 30 30 40 48 45 8 10 13 3 1 0 0 0 0 5 5 9 10 8
7 37 71 19 27 12 8 6 11 4 6 4 9 4 4 2 2 5 2 5 7 6
110 48 45 34 98 54 58 38 14 13 39 17 33 27 18 19 19 14 52 20 75 48
72 88 118 169 170 88 117 121 152 123 159 148 255 245 183 128 173 105 87 67 80 65
0 5 14 18 20 12 15 14 4 20 25 26 20 55 92 92 113 74 99 100 94 113

GFSNIL_con_mucape_093.txt.gz
CAPE
557 342 354 347 50 0 0 3 2 22 13 24 16 29 36 120 185 174 227 161 144 150
332 316 325 107 0 6 0 0 5 13 30 16 13 27 21 56 70 93 136 163 196 145
385 224 175 49 0 0 0 0 5 10 27 24 17 8 27 19 40 100 142 102 121 82
168 92 129 79 3 0 0 0 12 5 14 4 23 21 12 5 30 26 3 14 34 0
154 60 41 24 0 2 0 5 25 20 6 33 33 36 22 2 0 0 0 0 0 6
129 59 19 5 4 0 0 3 3 3 0 1 0 2 0 0 0 0 1 7 0 2
109 133 69 70 57 5 3 11 3 3 26 15 1 2 3 1 1 7 9 2 1 4
78 71 109 83 53 41 53 7 0 0 2 21 13 6 4 10 11 8 4 8 0 0
41 23 32 53 36 0 0 29 38 46 50 46 4 12 0 0 5 1 5 7 8 9
11 3 4 2 5 3 1 4 0 15 15 18 22 6 7 10 11 11 17 16 29 34
9 21 4 10 7 7 4 6 4 3 11 7 7 4 4 1 4 9 7 7 20 10
4 3 3 20 15 3 5 24 15 4 3 3 2 1 0 0 0 0 0 5 2 5
56 6 17 36 64 20 8 4 3 5 7 7 6 6 19 10 9 3 2 21 3 6
70 120 114 100 109 130 122 174 164 168 138 139 147 143 86 36 27 21 0 3 1 13

GFSNIL_con_mucape_096.txt.gz
CAPE
1093 1315 757 420 506 349 123 130 2 3 10 13 30 55 30 0 20 37 22 34 51 120
1076 813 478 386 267 137 56 8 0 1 2 4 27 43 22 26 20 13 21 36 57 91
986 439 344 438 108 9 4 0 3 7 11 29 17 41 12 35 26 14 44 43 49 82
420 252 419 190 6 0 0 0 0 3 12 16 27 16 15 12 7 16 43 49 66 78
267 355 396 140 3 0 0 0 2 7 0 2 25 25 18 23 32 46 48 64 65 77
400 271 193 54 17 0 4 0 0 1 7 9 0 20 24 15 30 40 50 43 58 78
201 244 61 61 1 74 15 3 5 3 0 0 21 11 12 15 10 49 9 0 0 5
183 269 90 119 33 24 24 44 6 0 1 0 0 0 0 0 0 0 0 4 9 6
108 118 127 78 76 40 43 20 0 4 0 4 7 8 1 2 2 2 0 4 16 10
112 86 92 37 8 8 19 52 44 11 9 4 1 18 14 7 12 23 4 8 7 7
78 30 28 11 6 8 2 0 0 21 20 25 24 25 20 14 10 16 14 9 1 10
12 12 8 10 8 5 7 2 3 7 9 30 14 15 15 17 11 8 10 14 10 8
12 15 21 21 27 4 14 6 8 6 2 5 7 5 4 8 4 4 6 3 17 8
7 12 10 10 14 9 10 20 3 10 8 4 6 2 4 11 14 12 10 5 9 6

GFSNIL_con_mucape_099.txt.gz
CAPE
1357 1380 1206 1155 969 672 466 177 189 74 26 39 23 29 26 24 43 33 25 41 5 3
1545 1540 1563 1123 723 542 408 289 121 40 23 14 22 45 39 3 28 36 11 18 4 15
1448 1179 1073 919 748 467 187 150 112 67 76 0 12 25 3 26 16 33 33 10 6 17
1255 1141 797 621 306 163 159 34 17 9 4 5 11 2 17 7 25 35 1 26 33 18
852 705 686 269 174 70 13 7 0 0 3 4 8 24 39 11 20 13 32 17 17 6
501 780 370 159 74 86 1 6 0 0 11 15 1 17 29 27 9 36 40 15 15 18
631 193 216 183 48 47 5 21 0 10 4 0 5 8 21 25 12 24 9 15 29 5
287 47 105 10 9 55 34 29 7 18 4 0 18 5 37 26 40 35 6 48 53 37
69 58 17 60 135 139 54 50 20 2 2 1 0 0 0 9 10 25 15 34 0 0
49 63 187 138 145 120 159 56 32 48 35 8 3 12 4 2 0 0 0 0 0 13
4 68 116 104 131 110 109 102 52 35 20 11 29 8 13 9 5 3 18 1 0 7
1 15 38 33 34 32 23 27 18 27 27 17 5 16 19 17 16 11 13 21 28 4
10 31 29 13 10 10 8 6 16 2 28 8 14 15 22 44 35 24 20 21 17 26
11 2 10 14 13 16 11 11 9 24 9 4 6 4 11 17 14 16 15 8 15 13

GFSNIL_con_mucape_102.txt.gz
CAPE
1332 1131 1048 821 574 511 604 581 444 467 314 579 365 140 96 33 29 38 37 37 20 14
1248 1203 1039 892 765 916 944 763 511 321 195 182 196 131 37 25 26 25 26 12 40 12
1277 1080 1105 1235 1119 1330 817 565 365 188 130 159 83 37 37 16 42 36 6 23 34 29
1182 1255 1377 1525 762 938 625 435 327 323 112 64 55 195 41 49 29 38 22 8 15 21
871 1290 914 617 631 509 334 142 133 45 29 4 4 10 14 15 7 24 37 3 32 18
646 662 824 932 420 309 43 6 0 2 12 7 0 6 17 8 10 42 9 37 36 0
522 471 651 228 97 37 4 0 0 13 8 0 0 1 6 23 43 40 15 19 22 5
214 356 317 108 17 18 5 12 18 12 2 7 0 0 15 4 27 52 33 33 28 19
425 302 17 15 19 20 11 3 5 28 6 0 0 0 5 18 23 34 17 18 47 27
95 111 9 0 17 37 29 14 12 21 10 5 9 2 0 0 4 18 24 41 5 3
79 125 56 58 54 23 30 37 41 64 61 43 8 6 12 3 4 0 3 18 8 2
111 84 64 116 115 47 11 18 36 24 73 19 22 35 31 10 4 5 0 2 4 6
60 46 12 35 52 19 15 44 29 15 20 18 15 13 11 29 27 37 2 1 9 0
51 30 0 22 41 22 17 12 28 23 30 29 33 35 18 18 24 12 15 20 14 43

GFSNIL_con_mucape_105.txt.gz
CAPE
1534 1417 1467 1237 1146 878 994 1310 928 524 782 885 793 587 699 414 363 252 115 39 36 42
1529 1484 1522 1132 915 728 848 851 766 364 374 596 902 621 674 307 252 131 70 43 31 18
1412 1260 966 918 810 853 534 464 533 634 454 369 279 311 188 151 104 63 50 31 32 68
908 814 837 802 834 675 701 775 1053 807 310 269 124 165 148 135 98 77 48 39 63 42
684 743 742 626 756 942 751 638 413 430 243 345 204 171 93 76 54 101 38 51 14 15
471 518 499 664 574 464 443 177 271 112 39 45 5 11 22 37 23 26 27 6 32 34
210 326 379 296 349 415 234 224 26 23 4 5 3 0 0 0 2 8 0 28 18 49
121 136 157 199 213 234 63 6 23 28 0 1 0 0 0 0 0 9 5 21 39 34
107 74 65 148 71 0 1 12 17 2 4 8 3 0 0 0 0 5 7 22 33 39
50 49 47 102 6 0 0 0 3 9 3 3 0 0 8 3 1 1 25 36 46 25
56 69 48 71 48 2 0 0 0 11 13 22 25 24 13 11 3 1 0 0 0 24
27 62 41 149 59 65 14 2 0 25 35 18 27 5 2 25 22 14 0 0 2 13
8 12 51 73 64 39 73 17 6 2 21 12 16 23 12 19 9 0 0 1 2 0
1 4 3 4 4 6 9 8 16 3 5 4 14 14 10 14 18 5 3 12 6 0

GFSNIL_con_mucape_108.txt.gz
CAPE
1699 1553 1374 1203 1028 1402 1352 1354 1062 1190 1293 1237 1102 1049 686 715 943 564 468 326 268 146
1886 1518 1452 1328 1220 1107 1066 1061 897 810 1441 965 758 600 637 554 531 500 527 351 202 201
1734 1488 1380 1354 1304 1305 937 713 625 647 1105 1032 945 726 615 565 506 429 390 216 188 148
1547 1481 1556 1281 1277 881 602 664 564 712 773 598 532 505 454 327 246 203 174 168 91 44
1385 1608 1476 1084 779 669 693 580 514 473 545 535 548 205 218 122 159 123 92 66 57 28
724 1060 757 633 530 499 447 521 595 410 327 308 352 232 53 33 18 66 79 96 56 127
160 164 242 272 252 308 292 135 131 240 258 97 58 33 6 22 0 0 0 0 4 23
170 224 234 216 92 60 58 68 95 90 46 23 16 10 2 0 0 1 0 0 0 9
4 74 75 29 30 2 38 72 15 16 11 1 5 6 0 0 0 0 0 0 13 7
5 83 33 21 17 28 5 6 4 1 0 2 4 7 2 0 1 8 0 0 0 10
0 0 38 18 34 50 7 0 0 0 0 0 14 10 10 11 24 23 6 0 1 0
8 14 1 20 28 20 17 1 16 0 0 0 1 22 20 18 7 10 2 0 1 1
5 0 2 4 13 60 60 41 38 12 8 15 8 5 30 21 19 52 11 8 2 6
3 2 3 18 0 4 19 25 28 29 0 14 4 14 9 8 25 10 23 2 9 4

GFSNIL_con_mucape_111.txt.gz
CAPE
1641 1764 2161 2092 1949 1762 1471 1368 1362 1305 1321 1019 1078 1142 1097 1071 846 650 572 435 318 333
1697 1684 1908 1917 1994 1942 1593 1124 1214 1435 915 1073 854 1080 1354 1047 841 672 741 427 431 422
1872 1497 1528 1683 1703 1655 1494 944 1506 1530 973 707 826 1525 1169 777 606 429 380 420 418 418
1687 1673 1341 1353 1582 1452 1236 1035 1499 1099 881 686 910 1298 936 553 393 454 433 432 404 329
1448 1365 1404 1239 1387 1986 1351 1362 1225 878 513 626 904 916 434 273 350 325 269 333 279 157
915 981 1066 1096 1408 1226 1149 884 780 683 576 428 380 374 324 343 199 107 73 85 129 194
394 422 505 576 687 657 514 603 370 314 312 252 191 93 143 143 100 63 37 10 6 3
134 129 180 236 279 235 251 207 172 89 34 35 72 102 106 7 7 7 0 0 0 0
135 197 226 228 178 149 136 67 49 5 1 26 83 8 0 0 2 0 0 0 0 0
45 3 70 95 47 30 1 0 0 4 46 12 9 0 1 0 0 0 0 0 0 0
1 0 0 0 0 0 1 0 28 42 0 0 6 0 1 5 5 4 9 1 0 0
0 0 0 0 0 0 0 17 24 0 4 0 0 10 0 2 20 31 2 0 0 0
0 0 0 0 0 0 7 15 0 2 7 0 0 3 9 0 7 15 3 17 8 2
0 0 0 0 0 1 0 0 0 0 0 7 2 4 4 5 0 4 8 14 8 6

GFSNIL_con_mucape_114.txt.gz
CAPE
95 922 1800 2039 2048 2305 2034 1627 1779 1804 1651 1752 1295 1180 1118 1115 1095 847 967 1374 1448 1156
395 1343 2056 2254 2592 2484 2284 1584 1764 1817 1753 1430 1761 1101 979 923 746 747 945 1154 1521 1311
630 1179 2176 2182 2217 2153 2423 2159 1931 1574 1581 1697 1599 1211 857 796 819 1058 1177 1059 784 818
915 1647 2256 2077 2043 2266 2259 1864 1763 1873 1310 1343 1709 1475 1035 802 847 901 1190 730 602 585
1504 1532 1789 1807 1881 1962 1727 1695 1624 1459 924 1299 1744 1340 1284 741 1137 1011 558 406 407 359
1011 1205 1273 1174 1290 1375 1276 1113 1310 1247 1161 1087 892 889 442 586 827 463 343 436 299 438
584 1080 1066 1058 987 1218 938 951 782 919 990 470 462 435 479 423 353 371 319 246 219 108
354 467 441 675 516 599 507 506 559 666 448 483 365 331 346 317 245 218 223 180 0 1
24 152 226 336 446 527 353 293 350 221 204 214 161 201 145 84 50 135 200 0 0 0
0 0 129 105 51 138 146 198 192 152 137 72 75 115 23 13 30 53 14 0 0 0
0 0 0 37 4 34 3 98 132 56 12 0 0 0 31 24 19 15 1 0 0 1
0 0 0 0 0 0 0 0 0 0 0 0 10 18 16 17 4 3 12 3 17 1
0 0 0 0 0 0 0 0 0 0 0 0 0 11 12 9 4 10 0 0 0 0
0 0 0 0 0 0 0 0 0 0 0 0 0 0 0 0 0 1 1 0 2 0

GFSNIL_con_mucape_117.txt.gz
CAPE
0 0 6 27 625 785 2215 2726 2829 2626 2030 2364 2371 1964 1740 1589 1360 1362 1205 1056 1199 1613
10 2 0 67 1032 1478 2052 2724 2676 2477 1711 1595 1803 1980 1615 1275 1370 1323 1320 1282 1191 1752
60 52 35 344 1415 2051 2262 2538 2323 2258 1650 1661 1550 1633 1880 1571 1506 1412 1404 1134 1181 1195
241 132 172 674 1798 2390 2277 1960 2094 2100 1612 1480 1472 1645 1727 1601 1359 1660 1570 973 1016 1188
157 293 479 1143 1475 2074 1712 1818 1999 1910 1811 1629 1464 1399 1639 1537 1669 990 1264 1075 813 948
320 634 970 764 552 955 1055 1077 1186 1168 1012 1214 1125 1261 998 1071 1009 1268 761 689 779 960
134 390 841 916 717 850 1067 1191 1025 1124 1188 1306 1048 1008 1125 1071 1184 646 562 758 533 344
79 334 478 634 704 929 946 994 1006 898 879 963 945 1000 848 848 609 543 431 307 288 134
0 18 140 227 329 573 646 643 636 502 561 618 491 427 452 373 344 285 193 101 105 112
0 0 33 127 213 212 260 343 390 466 349 431 374 330 257 197 174 185 159 90 35 1
0 0 0 0 28 109 154 21 257 279 266 199 174 135 122 94 12 23 5 9 3 14
0 0 0 0 0 0 0 0 0 0 0 29 7 17 18 14 2 0 5 0 9 27
0 0 0 0 0 0 0 0 0 0 0 0 0 0 0 0 0 0 0 0 2 3
0 0 0 0 0 0 0 0 0 0 0 0 0 0 0 0 0 0 0 2 1 0

GFSNIL_con_mucape_120.txt.gz
CAPE
0 0 0 0 0 0 0 12 676 1228 1412 1998 2188 2173 2045 1984 1660 1732 1873 1681 1190 1229
0 0 0 0 0 0 0 1 232 1130 1239 1513 2049 2095 2119 1887 1959 1895 1687 1752 1456 1162
0 0 0 0 0 0 0 3 442 935 1131 1007 1542 1825 1675 1580 1462 1633 1773 1177 1183 1565
0 0 1 0 0 0 0 5 581 947 733 3 997 1305 1376 1485 1298 1471 1510 1070 1120 1487
0 2 27 92 2 82 0 137 961 1093 798 205 988 1201 1341 1191 1198 1501 1520 1727 1446 1421
4 38 92 41 114 422 504 475 649 500 497 790 982 1173 1204 1193 1161 1060 1376 1506 1476 1392
19 105 192 272 139 136 161 156 126 267 294 411 521 846 1048 994 1129 1299 1096 1133 1049 979
36 67 134 188 284 79 87 19 66 144 174 238 337 613 723 991 828 872 857 813 872 854
0 0 52 141 236 240 23 0 157 358 228 241 501 469 408 597 677 695 626 595 541 237
0 0 5 37 85 145 159 202 276 304 308 281 312 283 266 371 396 461 498 419 286 242
0 0 0 0 0 7 30 73 146 135 229 224 278 86 12 9 26 211 171 45 158 88
0 0 0 0 0 0 0 0 0 0 14 0 25 31 49 0 2 0 6 11 6 0
0 0 0 0 0 0 0 0 0 0 0 0 0 0 0 0 0 0 0 0 0 0
0 0 0 0 0 0 0 0 0 0 0 0 0 0 0 0 0 0 0 0 0 0

GFSNIL_con_mucape_123.txt.gz
CAPE
0 0 0 0 0 0 0 0 0 56 270 609 879 1179 1402 1362 1024 539 97 695 979 1067
0 0 0 0 0 0 0 0 0 0 0 150 696 864 999 1172 1026 706 362 281 580 770
0 0 0 0 0 0 0 0 0 0 0 0 42 622 877 816 777 783 843 720 778 737
0 0 0 0 0 0 0 0 0 0 0 0 23 768 954 795 647 667 958 923 949 865
0 0 0 0 2 0 0 2 1 0 0 9 45 390 417 327 42 1 576 987 1101 834
3 2 6 6 7 2 2 13 3 2 0 43 778 138 1 0 0 594 980 1193 1075 919
0 2 17 26 39 3 8 25 70 57 164 244 297 346 99 75 385 498 617 721 828 812
0 0 6 32 27 42 11 38 47 72 75 43 37 143 221 138 345 227 271 563 591 560
0 0 0 2 0 40 58 20 21 22 1 39 78 8 51 216 134 293 313 517 246 89
0 0 0 0 0 0 0 0 22 0 0 0 0 0 0 0 0 95 269 56 88 104
0 0 0 0 0 0 0 0 0 0 0 0 0 0 0 0 0 0 9 85 24 138
0 0 0 0 0 0 0 0 0 0 0 0 0 0 0 0 0 0 0 0 23 46
0 0 0 0 0 0 0 0 0 0 0 0 0 0 0 0 0 0 0 0 0 0
0 0 0 0 0 0 0 0 0 0 0 0 0 0 0 0 0 0 0 0 0 0